Regional Weather Roundup
Issued by NWS

Home | Current Version | Previous Version | Graphics & Text | Print | Product List | Glossary On
Versions: 1 2 3 4 5 6 7 8 9 10 11 12 13 14 15 16 17 18 19 20 21 22 23 24 25 26 27 28 29 30 31 32 33 34 35 36 37 38 39 40 41 42 43 44 45 46 47 48 49 50
000
ASUS45 KBOU 231307
RWRCO

WEATHER ROUNDUP FOR COLORADO
NATIONAL WEATHER SERVICE DENVER/BOULDER CO
700 AM MDT TUE AUG 23 2016

NOTE: "FAIR" INDICATES FEW OR NO CLOUDS BELOW 12000 FEET WITH NO
SIGNIFICANT WEATHER AND/OR OBSTRUCTIONS TO VISIBILITY.

COZ001>005-013-030-031-231400-
...NORTHWEST COLORADO...

CITY           SKY/WX    TMP DP  RH WIND       PRES   REMARKS
CRAIG          FAIR      42  38  85 CALM      30.20R
HAYDEN         FAIR      46  36  66 E9        30.22R
MEEKER         FAIR      45  40  82 NE3       30.23R
MOUNT WERNER   NOT AVBL
STEAMBOAT SPGS FAIR      41  36  83 CALM      30.24R
WALDEN         FAIR      36  32  87 SE6       30.29R
$$

COZ006>008-011-231400-
...WEST CENTRAL VALLEYS...

CITY           SKY/WX    TMP DP  RH WIND       PRES   REMARKS
GRAND JUNCTION FAIR      61  46  57 E9        30.15R
MONTROSE       FAIR      53  44  71 S6        30.22R
EAGLE          CLEAR     48  43  81 CALM      30.28R
RIFLE          FAIR      51  47  86 CALM      30.21R
DELTA          NOT AVBL
NUCLA          FAIR      55  46  71 E12       30.24F
$$

COZ017>023-064>068-231400-
...SOUTHWEST COLORADO...

CITY           SKY/WX    TMP DP  RH WIND       PRES   REMARKS
DURANGO        FAIR      50  48  93 E3        30.25R
CORTEZ         FAIR      52  48  86 SE7       30.21R
PAGOSA SPRINGS FAIR      48  48  99 CALM      30.32R
TELLURIDE      CLOUDY    46  42  85 SE5       30.40R
WOLF CREEK PAS FOG       37  37 100 S13       30.55R VSB<1/4
$$

COZ009-010-012-014-032>034-037-058>063-231400-
...CENTRAL COLORADO...

CITY           SKY/WX    TMP DP  RH WIND       PRES   REMARKS
ASPEN          FAIR      45  40  82 CALM      30.30R
BUENA VISTA    FAIR      40  35  83 CALM      30.29R
COPPER MTN     FAIR      45  36  70 NW7       30.52S
BERTHOUD PASS  FAIR      36  23  60 N21G26    30.53R
COTTONWOOD PAS FAIR      50  36  57 W9        30.38R
GUNNISON       CLOUDY    46  43  87 N6        30.36S
KREMMLING      FAIR      36  32  87 CALM      30.31R
LEADVILLE      FAIR      39  34  82 NE8       30.39R
MONARCH PASS   SNOW      36  36 100 W22       30.60R VSB<1/4
SALIDA         FAIR      54  42  64 N7        30.33R
SUNLIGHT       FAIR      45  41  87 NE7       30.49R
WILKERSON PASS NOT AVBL
$$

COZ069>075-231400-
...SAN LUIS VALLEY/SANGRE DE CRISTO MOUNTAINS...

CITY           SKY/WX    TMP DP  RH WIND       PRES   REMARKS
ALAMOSA        FAIR      41  38  89 CALM      30.29R
LA VETA PASS   FAIR      43  39  87 S12G22    30.37R
SAGUACHE       NOT AVBL
$$

COZ035-036-038>040-231400-
...NORTHERN COLORADO FRONT RANGE...

CITY           SKY/WX    TMP DP  RH WIND       PRES   REMARKS
DENVER INTL AP FAIR      64  38  38 SW10      30.01R
DMNS CITY PARK   N/A     63  40  42 S5        30.01R
AURORA         PTCLDY    59  39  48 S6        30.04R
FRONT RANGE AP CLEAR     66  37  34 SW10G16   30.03
ERIE MUNI ARPT FAIR      56  40  56 CALM      29.99R
BOULDER MUN AP FAIR      68  36  30 CALM      30.00R
CENTENNIAL     FAIR      60  37  42 CALM      30.05R
BROOMFIELD     PTCLDY    68  36  30 CALM      30.03R
FORT COLLINS   FAIR      57  46  67 S6        29.98R
LONGMONT       FAIR      56  46  68 CALM      30.00R
$$

COZ041-046-047-076>085-087-088-231400-
...PIKES PEAK/PALMER DIVIDE AND SOUTHERN FOOTHILLS...

CITY           SKY/WX    TMP DP  RH WIND       PRES   REMARKS
COLO. SPRINGS  FAIR      63  39  41 N10       30.08R
A. F. ACADEMY  FAIR      54  39  57 N9        30.10R
SCHRIEVER AFB  NOT AVBL
ELLICOTT       NOT AVBL
FALCON         FAIR      60  37  42 NW7       30.12S
FORT CARSON    FAIR      57  42  56 NW6       30.04R
LIMON          FAIR      55  39  54 NW7       30.02R
MONUMENT HILL  FAIR      54  36  50 W10       30.15R
TRINIDAD       FAIR      59  43  55 W13       30.09R
$$

COZ042>045-048>051-090-091-231400-
...NORTHEAST COLORADO...

CITY           SKY/WX    TMP DP  RH WIND       PRES   REMARKS
GREELEY ARPT   FAIR      50  46  87 CALM      29.98R
AKRON          FAIR      58  42  55 W12       29.96R
BURLINGTON     FAIR      60  46  59 W10       29.91R
WRAY           FAIR     N/A N/A N/A NW3       29.88R HAZE
STERLING       FAIR      50  46  87 CALM      29.92R
HOLYOKE        FAIR      61  57  88 CALM      29.88R
FORT MORGAN    FAIR      54  44  67 W3        29.97R
$$

COZ086-089-092>099-231400-
...SOUTHEAST COLORADO...

CITY           SKY/WX    TMP DP  RH WIND       PRES   REMARKS
PUEBLO         FAIR      68  42  38 W3        29.98R
LA JUNTA       FAIR      64  48  56 SW10      29.95R
LAMAR          FAIR      59  51  75 SW8       29.91R
SPRINGFIELD      N/A     59  53  80 SW14      29.98R
$$



USA.gov is the U.S. government's official web portal to all federal, state and local government web resources and services.